{"data":{"norad_id":56109,"intl_designator":"2023-046S","name":"STARLINK-6083","alt_names":[],"object_type":"PAYLOAD","status":"ACTIVE","operator":null,"country":"US","launch_date":"2023-03-29","launch_site_code":"AFETR","launch_vehicle":null,"mission":null,"orbit_class":"UNKNOWN","rcs_meters":null,"size_class":null,"mass_kg":null,"dimensions":null,"purposes":["comms"],"wikipedia_slug":null,"has_3d_model":false,"image_url":null,"decayed_at":null,"tle_current":{"epoch":"2026-09-19T22:07:26.080032Z","epoch_age_seconds":158618,"freshness":"FRESH","line1":"1 56109U 23046S   26262.92182963 -.00000442  00000+0 -65427-5 0  9994","line2":"2 56109  43.0037 144.9026 0001216 262.5868  97.4845 15.27574254191733","mean_motion":15.27574254,"eccentricity":0.0001216,"inclination_deg":43.0037,"raan_deg":144.9026,"arg_perigee_deg":262.5868,"mean_anomaly_deg":97.4845,"bstar":-6.5427e-6,"rev_number":19173,"period_min":94.267103299844,"perigee_km":482.23197936321,"apogee_km":483.90062400618,"semimajor_km":6861.2033016847,"source":"CELESTRAK","updated_at":"2026-09-21T09:00:33.383271Z"}}}